Regional Weather Roundup
Issued by NWS Albany, NY

Home | Current Version | Previous Version | Text Only | Print | Product List | Glossary On
Versions: 1 2 3 4 5 6 7 8 9 10 11 12 13 14 15 16 17 18 19 20 21 22 23 24 25 26 27
000
ASUS41 KALY 250810
RWRALY

NEW YORK STATE HOURLY WEATHER ROUNDUP
NATIONAL WEATHER SERVICE ALBANY NY
400 AM EDT FRI APR 25 2014

NOTE: "FAIR" INDICATES FEW OR NO CLOUDS BELOW 12,000 FEET WITH NO
SIGNIFICANT WEATHER AND/OR NO OBSTRUCTIONS TO VISIBILITY.

NYZ032-033-038>043-046>054-057>066-NYZ062>081-250900-
EAST


CITY           SKY/WX    TMP DP  RH WIND       PRES   REMARKS
ALBANY         CLEAR     34  21  59 CALM      30.01S
GLENS FALLS    CLEAR     35  19  52 N3        30.00R
POUGHKEEPSIE   CLEAR     32  24  72 CALM      30.00F
NEWBURGH       CLEAR     39  21  48 CALM      30.00F
MONTGOMERY     CLEAR     33  25  72 SW5       30.00S WCI  29
WHITE PLAINS   CLEAR     41  19  41 NW6       29.98F
ISLIP          CLEAR     42  22  44 NW7       29.98S
NEW YORK CITY  CLEAR     47  19  33 NW9       30.00F
CENTRAL PARK   CLEAR     46  18  32 VRB6      30.03F
$$

NYZ005>009-017-018-044>046-055-056-250900-
CENTRAL


CITY           SKY/WX    TMP DP  RH WIND       PRES   REMARKS
FULTON         CLEAR     32  25  75 CALM      30.02S
SYRACUSE       PTCLDY    34  24  67 SE3       30.02S
ROME           CLEAR     28  21  75 CALM      30.03F
ELMIRA         MOCLDY    33  23  66 W3        30.01S
BINGHAMTON     CLEAR     36  17  46 CALM      29.98S
MONTICELLO     CLEAR     32  18  55 CALM      30.00S
$$

NYZ026>034-041>043-250900-
NORTH


CITY           SKY/WX    TMP DP  RH WIND       PRES   REMARKS
WATERTOWN      CLEAR     28  20  71 CALM      30.03R
FORT DRUM      NOT AVBL
MASSENA        CLEAR     28  24  85 CALM      30.04R
SARANAC LAKE   CLEAR     18  15  88 CALM      29.95F
PLATTSBURGH    CLEAR     36  16  44 NW7       30.01R WCI  30
$$

NYZ001>004-010>016-019>021-250900-
WEST


CITY           SKY/WX    TMP DP  RH WIND       PRES   REMARKS
NIAGARA FALLS  CLOUDY    43  24  47 E6        29.93F
BUFFALO        CLOUDY    44  22  41 E6        29.94F
DUNKIRK        CLOUDY    47  19  33 E9        29.90F
JAMESTOWN      CLOUDY    43  19  39 SE8       29.90F
WELLSVILLE     CLOUDY    39  16  39 SE9       29.96S WCI  33
ROCHESTER      CLOUDY    43  25  49 E5        29.99S
PENN YAN       MOCLDY    37  27  67 CALM      29.99F
$$

             KEY
       WCI = WIND CHILL INDEX
       VSB = VISIBILITY
       HX  = HEAT INDEX
$$



USA.gov is the U.S. government's official web portal to all federal, state and local government web resources and services.